Precipitable_Water
0.68 0.68 0.67 0.68 0.70 0.69 0.66 0.68 0.61 0.56 0.55 0.57 0.58 0.53 0.48 0.44 0.42 0.40 0.37 0.33 0.31 0.30 0.29 0.29 0.31 0.35 0.28 0.24 0.25 0.34 0.29 0.22 0.15 0.15 0.16 0.20 0.19 0.22 0.22 0.31 0.37 0.37 0.41 0.49 0.62 0.69 0.71
0.62 0.65 0.66 0.66 0.66 0.69 0.68 0.64 0.65 0.64 0.62 0.60 0.55 0.54 0.53 0.49 0.45 0.39 0.36 0.33 0.31 0.29 0.27 0.27 0.31 0.34 0.28 0.14 0.29 0.27 0.25 0.22 0.17 0.18 0.17 0.19 0.20 0.24 0.22 0.27 0.33 0.42 0.46 0.53 0.57 0.61 0.66
0.60 0.63 0.63 0.62 0.62 0.64 0.67 0.69 0.69 0.66 0.63 0.64 0.63 0.59 0.55 0.50 0.45 0.40 0.36 0.32 0.30 0.27 0.25 0.26 0.32 0.31 0.19 0.14 0.30 0.24 0.24 0.19 0.19 0.18 0.17 0.21 0.24 0.25 0.28 0.27 0.35 0.42 0.40 0.47 0.54 0.58 0.59
0.55 0.57 0.58 0.58 0.58 0.60 0.60 0.66 0.66 0.65 0.67 0.68 0.66 0.64 0.58 0.53 0.46 0.40 0.35 0.31 0.28 0.26 0.27 0.28 0.32 0.27 0.12 0.28 0.29 0.27 0.22 0.19 0.20 0.20 0.20 0.27 0.28 0.26 0.27 0.39 0.41 0.39 0.41 0.33 0.47 0.53 0.56
0.47 0.48 0.49 0.51 0.52 0.53 0.55 0.58 0.60 0.63 0.62 0.63 0.62 0.62 0.60 0.55 0.49 0.43 0.35 0.31 0.30 0.30 0.30 0.30 0.23 0.20 0.11 0.27 0.21 0.21 0.19 0.16 0.19 0.18 0.22 0.27 0.26 0.25 0.28 0.30 0.31 0.36 0.30 0.33 0.38 0.48 0.50
0.45 0.44 0.43 0.44 0.44 0.44 0.48 0.50 0.54 0.57 0.59 0.60 0.59 0.58 0.55 0.54 0.48 0.42 0.39 0.35 0.31 0.31 0.23 0.30 0.27 0.23 0.22 0.17 0.21 0.18 0.16 0.18 0.19 0.18 0.19 0.19 0.22 0.22 0.24 0.24 0.19 0.25 0.29 0.33 0.32 0.40 0.44
0.46 0.45 0.47 0.49 0.48 0.44 0.43 0.45 0.48 0.50 0.55 0.55 0.56 0.55 0.53 0.53 0.48 0.41 0.44 0.40 0.26 0.20 0.23 0.13 0.16 0.14 0.19 0.24 0.22 0.16 0.18 0.17 0.18 0.18 0.15 0.18 0.17 0.16 0.19 0.25 0.27 0.27 0.30 0.29 0.34 0.38 0.35
0.42 0.42 0.41 0.41 0.43 0.48 0.47 0.43 0.43 0.47 0.47 0.50 0.53 0.54 0.51 0.50 0.46 0.49 0.59 0.48 0.44 0.48 0.29 0.31 0.18 0.21 0.21 0.22 0.16 0.16 0.18 0.13 0.14 0.14 0.17 0.15 0.14 0.21 0.25 0.27 0.26 0.31 0.28 0.30 0.39 0.45 0.40
0.44 0.43 0.42 0.41 0.41 0.41 0.42 0.46 0.42 0.41 0.44 0.45 0.48 0.50 0.50 0.48 0.43 0.54 0.50 0.51 0.61 0.61 0.32 0.26 0.25 0.21 0.19 0.21 0.17 0.15 0.16 0.15 0.13 0.15 0.15 0.16 0.13 0.24 0.26 0.25 0.26 0.29 0.30 0.33 0.36 0.43 0.46
0.44 0.44 0.43 0.42 0.40 0.41 0.38 0.42 0.44 0.41 0.39 0.42 0.43 0.45 0.45 0.44 0.37 0.48 0.48 0.58 0.57 0.55 0.17 0.16 0.17 0.23 0.20 0.20 0.16 0.19 0.18 0.15 0.16 0.13 0.16 0.17 0.23 0.23 0.24 0.25 0.29 0.26 0.37 0.38 0.37 0.35 0.31
0.44 0.43 0.41 0.41 0.39 0.40 0.39 0.39 0.43 0.40 0.38 0.38 0.39 0.40 0.42 0.45 0.43 0.45 0.56 0.60 0.57 0.48 0.08 0.14 0.18 0.28 0.19 0.16 0.16 0.13 0.20 0.17 0.16 0.16 0.19 0.16 0.21 0.22 0.23 0.24 0.29 0.29 0.39 0.40 0.38 0.35 0.35
0.41 0.45 0.43 0.41 0.40 0.40 0.40 0.38 0.43 0.43 0.41 0.38 0.35 0.36 0.41 0.40 0.47 0.57 0.61 0.61 0.50 0.20 0.09 0.19 0.23 0.23 0.18 0.17 0.16 0.16 0.18 0.19 0.21 0.20 0.21 0.21 0.25 0.27 0.26 0.28 0.29 0.35 0.37 0.40 0.41 0.37 0.27
0.42 0.42 0.43 0.41 0.39 0.40 0.39 0.39 0.40 0.41 0.41 0.41 0.35 0.32 0.36 0.41 0.38 0.57 0.57 0.49 0.18 0.15 0.19 0.18 0.21 0.21 0.19 0.16 0.16 0.17 0.17 0.15 0.15 0.15 0.16 0.21 0.23 0.27 0.26 0.25 0.28 0.32 0.35 0.28 0.25 0.26 0.23
0.41 0.40 0.40 0.40 0.40 0.39 0.38 0.37 0.38 0.39 0.40 0.40 0.35 0.31 0.36 0.37 0.52 0.59 0.50 0.33 0.14 0.19 0.15 0.26 0.25 0.21 0.17 0.20 0.18 0.18 0.17 0.14 0.16 0.19 0.18 0.16 0.16 0.21 0.24 0.24 0.25 0.28 0.31 0.23 0.16 0.17 0.19
0.38 0.40 0.40 0.40 0.38 0.37 0.37 0.37 0.39 0.38 0.38 0.39 0.34 0.29 0.28 0.39 0.52 0.60 0.39 0.20 0.17 0.20 0.23 0.21 0.25 0.21 0.17 0.19 0.20 0.19 0.19 0.15 0.14 0.19 0.17 0.17 0.17 0.21 0.21 0.25 0.30 0.28 0.25 0.32 0.27 0.26 0.22
0.36 0.38 0.39 0.39 0.37 0.37 0.37 0.37 0.39 0.40 0.38 0.37 0.32 0.30 0.34 0.40 0.49 0.49 0.29 0.21 0.25 0.27 0.31 0.22 0.20 0.20 0.17 0.16 0.18 0.19 0.19 0.21 0.16 0.20 0.23 0.21 0.17 0.21 0.20 0.24 0.28 0.26 0.31 0.26 0.26 0.18 0.17
0.36 0.36 0.38 0.38 0.36 0.38 0.37 0.38 0.39 0.40 0.38 0.36 0.33 0.25 0.49 0.48 0.54 0.40 0.20 0.22 0.26 0.32 0.36 0.24 0.25 0.24 0.18 0.18 0.17 0.18 0.18 0.22 0.19 0.20 0.22 0.25 0.23 0.20 0.21 0.20 0.20 0.21 0.21 0.26 0.26 0.24 0.17
0.39 0.36 0.36 0.37 0.37 0.37 0.37 0.37 0.38 0.41 0.41 0.33 0.24 0.18 0.50 0.58 0.32 0.35 0.27 0.22 0.27 0.27 0.36 0.32 0.29 0.28 0.28 0.27 0.19 0.19 0.18 0.19 0.24 0.20 0.20 0.24 0.26 0.20 0.19 0.22 0.25 0.24 0.20 0.25 0.18 0.16 0.20
0.36 0.36 0.35 0.36 0.36 0.36 0.34 0.35 0.38 0.41 0.42 0.33 0.20 0.21 0.38 0.50 0.25 0.24 0.28 0.30 0.26 0.20 0.32 0.31 0.30 0.30 0.32 0.29 0.25 0.21 0.20 0.23 0.25 0.23 0.21 0.26 0.25 0.21 0.20 0.23 0.24 0.23 0.20 0.23 0.24 0.24 0.17
0.34 0.36 0.34 0.35 0.35 0.35 0.35 0.34 0.37 0.40 0.42 0.35 0.22 0.16 0.27 0.39 0.39 0.32 0.30 0.26 0.26 0.26 0.24 0.32 0.32 0.34 0.30 0.28 0.32 0.26 0.25 0.25 0.26 0.25 0.26 0.30 0.25 0.25 0.18 0.17 0.20 0.18 0.18 0.24 0.26 0.18 0.16
0.36 0.35 0.34 0.34 0.35 0.35 0.36 0.37 0.36 0.39 0.40 0.37 0.26 0.21 0.30 0.21 0.27 0.30 0.31 0.33 0.30 0.26 0.27 0.30 0.29 0.29 0.26 0.28 0.28 0.27 0.30 0.29 0.28 0.27 0.28 0.29 0.22 0.25 0.28 0.25 0.22 0.18 0.17 0.19 0.22 0.21 0.16
0.35 0.34 0.33 0.33 0.34 0.35 0.36 0.35 0.37 0.38 0.40 0.32 0.23 0.23 0.27 0.22 0.24 0.26 0.28 0.25 0.27 0.31 0.32 0.25 0.28 0.27 0.28 0.27 0.32 0.31 0.30 0.31 0.27 0.28 0.27 0.31 0.24 0.24 0.23 0.27 0.22 0.19 0.19 0.18 0.19 0.19 0.22
0.35 0.35 0.33 0.31 0.33 0.33 0.33 0.32 0.36 0.38 0.40 0.30 0.36 0.40 0.31 0.21 0.19 0.21 0.24 0.32 0.29 0.33 0.34 0.34 0.31 0.29 0.28 0.30 0.38 0.38 0.43 0.38 0.36 0.28 0.25 0.28 0.26 0.24 0.19 0.24 0.23 0.18 0.21 0.20 0.20 0.18 0.17
0.35 0.35 0.35 0.31 0.33 0.33 0.34 0.32 0.33 0.38 0.41 0.38 0.38 0.36 0.27 0.18 0.20 0.22 0.27 0.30 0.31 0.34 0.31 0.36 0.36 0.32 0.30 0.42 0.41 0.41 0.39 0.37 0.38 0.35 0.32 0.25 0.26 0.28 0.22 0.22 0.14 0.20 0.24 0.23 0.21 0.19 0.19
0.35 0.34 0.34 0.34 0.33 0.32 0.32 0.32 0.32 0.39 0.41 0.38 0.39 0.36 0.29 0.21 0.21 0.18 0.24 0.28 0.30 0.34 0.32 0.32 0.37 0.40 0.44 0.35 0.32 0.31 0.32 0.32 0.31 0.34 0.31 0.30 0.27 0.23 0.22 0.18 0.20 0.22 0.20 0.20 0.20 0.17 0.19
0.35 0.33 0.32 0.33 0.33 0.33 0.32 0.31 0.31 0.36 0.41 0.39 0.39 0.43 0.35 0.25 0.21 0.25 0.23 0.24 0.24 0.29 0.29 0.31 0.39 0.45 0.43 0.33 0.30 0.25 0.23 0.29 0.26 0.30 0.35 0.31 0.31 0.24 0.25 0.20 0.13 0.20 0.24 0.23 0.22 0.15 0.21
0.32 0.35 0.34 0.33 0.33 0.35 0.34 0.32 0.31 0.34 0.40 0.40 0.36 0.44 0.36 0.25 0.24 0.29 0.25 0.26 0.30 0.29 0.28 0.33 0.35 0.37 0.43 0.32 0.25 0.25 0.24 0.30 0.24 0.24 0.26 0.27 0.26 0.24 0.23 0.21 0.23 0.27 0.23 0.28 0.16 0.15 0.18
0.36 0.37 0.37 0.36 0.37 0.38 0.38 0.36 0.32 0.31 0.37 0.41 0.35 0.44 0.38 0.28 0.25 0.29 0.31 0.29 0.30 0.30 0.25 0.33 0.32 0.37 0.37 0.28 0.25 0.25 0.25 0.26 0.25 0.25 0.23 0.25 0.24 0.23 0.25 0.21 0.18 0.30 0.23 0.20 0.24 0.25 0.23
0.37 0.38 0.39 0.40 0.41 0.41 0.40 0.40 0.36 0.31 0.35 0.42 0.31 0.43 0.47 0.33 0.26 0.35 0.31 0.33 0.33 0.32 0.30 0.32 0.32 0.34 0.36 0.32 0.32 0.27 0.23 0.26 0.25 0.20 0.29 0.22 0.25 0.23 0.25 0.25 0.35 0.32 0.29 0.31 0.31 0.27 0.26
Wind_Speed
20 20 20 20 20 20 19 20 20 20 21 20 20 20 20 20 20 20 19 19 18 18 17 16 15 14 12 13 13 10 9 9 9 9 12 13 13 15 16 16 17 17 16 17 20 20 21
23 22 22 21 21 20 21 21 21 21 22 22 22 22 22 21 21 21 21 20 20 19 19 18 17 16 15 14 12 11 11 10 10 10 11 12 13 15 16 17 18 17 19 16 17 19 18
23 23 24 23 23 23 22 22 22 23 23 23 23 23 23 23 23 23 22 22 21 21 20 20 18 17 17 19 13 13 11 12 11 12 12 12 13 13 12 15 18 20 18 17 17 18 19
22 23 24 24 25 25 25 24 24 23 23 23 24 24 24 24 24 24 24 24 23 22 21 20 19 18 19 17 20 17 15 12 12 12 12 11 12 13 14 14 14 16 16 17 22 21 22
24 24 24 24 25 25 26 27 26 26 25 25 24 24 24 24 24 24 24 24 24 23 22 20 19 19 19 17 19 19 16 15 13 13 13 11 12 14 15 16 15 17 18 17 19 22 22
23 23 24 25 26 26 26 27 27 28 28 27 27 26 26 25 25 24 24 24 23 22 22 21 22 18 21 18 18 19 18 16 14 12 12 12 14 15 16 15 19 16 18 18 19 23 21
24 24 25 25 26 26 27 27 27 27 28 29 29 28 27 27 26 24 22 20 20 22 25 24 20 21 16 19 17 16 17 17 15 13 14 15 13 16 18 17 16 17 18 22 21 20 20
26 26 27 27 28 27 27 28 28 27 27 28 29 29 28 27 26 24 21 21 20 22 24 29 31 27 24 19 18 20 19 17 17 16 15 12 16 17 16 16 19 19 18 17 19 20 16
27 27 28 29 29 30 30 29 29 29 28 27 27 27 27 27 26 22 22 21 21 21 23 26 30 29 26 22 20 20 21 20 18 18 18 15 15 19 17 16 19 20 19 15 19 18 15
28 29 30 30 31 31 30 30 29 29 28 28 26 26 25 25 22 22 22 20 20 20 21 23 27 28 29 22 23 24 23 20 19 20 19 18 17 19 19 17 19 18 17 19 19 20 16
30 31 31 31 31 30 30 29 29 28 27 27 26 25 24 23 24 22 21 21 20 19 16 19 24 25 27 27 16 24 24 23 22 19 19 18 17 17 17 17 18 14 16 17 17 18 14
30 30 30 30 29 29 28 27 27 26 26 25 25 25 24 22 23 25 21 20 19 18 21 17 18 22 25 30 23 19 25 23 21 21 21 18 17 16 14 16 15 16 15 16 14 15 15
29 29 29 28 28 27 26 25 25 25 25 25 24 24 24 24 23 22 20 20 18 22 20 19 19 20 24 25 27 22 24 26 22 19 20 19 17 17 17 15 15 16 17 11 10 12 14
29 28 27 27 26 25 25 24 23 23 23 23 23 22 21 23 24 22 21 22 23 21 22 13 18 21 23 22 27 24 26 24 26 22 19 19 17 17 17 20 17 18 18 13 10 12 14
28 27 26 26 25 24 24 23 23 23 22 22 22 18 19 20 23 22 22 25 24 21 15 18 17 18 23 23 20 25 26 27 26 29 20 20 18 17 17 19 20 19 20 17 11 10 9
28 27 26 25 24 24 24 24 23 23 22 21 18 14 13 18 21 23 24 26 25 23 15 16 18 19 20 24 25 25 24 27 28 28 23 19 17 20 19 20 18 22 18 15 11 10 10
27 26 25 24 24 24 24 24 23 23 21 20 14 12 11 12 17 21 24 27 26 25 21 16 16 16 19 20 25 22 23 22 29 26 27 20 16 19 19 23 20 16 19 16 14 12 11
26 25 24 24 23 24 24 24 22 21 20 16 13 12 11 10 15 18 21 25 26 29 24 21 19 18 17 16 24 27 22 24 19 30 25 25 18 21 23 18 20 19 18 19 16 15 13
26 25 24 24 23 24 23 22 21 20 18 16 13 13 13 13 14 16 20 23 29 30 27 22 21 20 18 17 15 25 26 23 19 20 29 25 19 18 18 19 22 21 22 20 16 15 17
25 24 24 23 23 22 22 22 20 19 18 15 13 12 13 14 15 15 15 20 25 26 32 29 26 23 20 19 19 18 23 23 22 22 25 25 23 23 24 22 20 22 21 22 19 16 16
24 24 24 22 21 21 21 21 20 19 18 15 14 14 13 14 13 15 17 16 17 22 27 27 26 27 24 21 20 18 17 19 22 22 24 25 25 23 22 21 23 24 25 24 23 19 19
24 24 23 21 21 21 21 21 20 18 18 15 15 14 15 19 18 17 17 18 20 20 22 26 29 28 27 24 23 19 20 20 23 23 23 24 23 24 22 22 25 26 27 28 26 25 23
23 23 22 21 21 21 21 21 20 18 17 15 15 16 17 17 18 18 16 12 17 19 21 24 25 27 27 25 24 24 20 22 24 25 26 25 23 22 24 22 21 26 29 29 27 27 27
23 22 22 21 21 21 21 21 20 19 16 16 16 17 17 16 17 19 20 19 16 20 21 21 22 21 26 19 24 23 26 22 22 26 27 26 24 23 23 20 25 23 27 24 26 26 26
23 23 22 22 22 21 21 20 20 18 16 16 16 16 17 16 17 19 20 19 18 18 19 23 23 23 22 24 23 21 21 22 25 25 27 27 25 23 23 25 22 23 24 26 24 23 24
24 24 24 23 23 22 21 21 20 18 17 16 16 17 18 18 16 16 20 20 18 17 18 19 22 20 20 23 23 24 24 23 24 24 26 26 26 25 23 25 25 28 22 24 22 26 24
24 25 25 24 24 23 22 21 19 18 17 15 16 17 18 19 20 17 17 18 19 18 18 16 17 20 20 22 23 24 25 24 23 25 24 24 24 28 24 24 25 23 25 20 23 22 25
27 26 26 25 24 23 22 21 19 18 16 15 15 16 17 19 21 22 20 19 19 18 17 17 16 17 18 21 23 25 25 26 25 26 28 26 24 26 25 25 27 23 24 25 22 22 19
28 27 26 26 25 24 22 21 19 18 16 15 15 14 16 19 21 20 25 24 25 24 21 18 18 14 18 15 20 22 24 24 25 23 24 28 29 27 30 29 22 24 23 22 20 20 19
Wind_Direction
312 309 307 307 308 297 296 292 288 285 284 283 283 282 281 279 278 276 273 271 268 264 262 260 259 259 255 244 246 242 242 244 244 233 230 230 229 224 227 219 219 216 218 213 204 197 196
304 304 303 303 304 304 296 294 291 287 285 282 281 281 281 279 278 275 271 269 265 262 259 257 254 255 244 246 240 237 240 242 240 232 232 231 226 223 229 220 220 213 196 198 201 192 200
302 301 300 299 298 299 298 296 292 289 286 284 281 281 279 279 277 274 270 267 264 260 256 252 249 248 245 241 240 238 239 242 239 237 234 235 229 227 226 223 216 195 196 202 209 207 197
310 305 302 299 296 295 293 293 292 289 288 285 282 281 280 279 277 274 270 266 261 256 253 248 244 244 245 241 240 243 239 240 239 236 234 237 226 223 211 206 195 201 212 211 216 212 217
308 307 305 304 300 297 293 290 288 287 285 284 283 281 279 278 277 274 271 265 257 251 246 240 239 240 246 243 235 235 234 235 233 232 228 232 221 211 213 203 207 219 212 216 219 220 221
315 313 309 306 303 299 297 293 290 285 283 282 281 280 278 277 276 274 270 262 250 245 238 235 239 244 243 240 236 232 230 228 226 223 224 224 215 212 214 211 215 221 216 221 218 220 220
315 315 313 311 309 304 300 296 293 290 284 281 279 278 277 275 274 271 266 250 244 242 237 232 235 235 242 230 224 225 223 223 223 218 222 218 214 214 217 218 216 222 224 221 218 217 214
314 313 311 310 308 308 304 300 295 292 289 285 280 276 274 273 270 263 253 245 243 247 248 239 241 239 242 237 230 229 220 218 218 218 218 217 220 217 218 218 220 213 216 219 210 206 211
315 313 311 310 308 305 303 301 298 293 290 288 284 278 274 271 265 251 249 245 247 249 245 243 235 232 232 232 231 226 217 218 217 219 218 217 221 218 220 218 214 223 230 208 186 207 208
313 311 310 308 308 306 303 300 298 295 290 287 284 280 274 271 250 249 242 247 247 245 246 243 231 232 228 228 235 228 215 214 221 218 220 221 219 213 222 213 208 218 201 193 193 196 213
314 311 309 308 307 306 304 301 300 297 294 287 282 278 272 261 247 240 247 247 243 233 243 238 227 225 219 219 229 222 213 215 220 215 211 221 220 215 219 207 210 214 183 190 200 209 211
312 312 310 310 309 309 307 303 301 299 295 291 284 276 269 254 246 238 249 242 229 225 238 239 217 217 213 218 225 215 209 215 216 224 224 225 219 212 217 204 204 197 190 192 203 214 229
313 312 312 312 311 311 310 307 303 302 299 294 288 278 263 251 237 240 242 227 222 226 239 227 221 216 215 215 218 218 206 210 213 210 219 221 210 214 213 209 202 186 183 200 213 218 226
314 312 312 312 313 312 312 311 308 305 303 300 293 280 258 247 237 235 231 220 224 230 229 239 220 217 216 211 217 220 211 214 216 217 211 207 214 207 212 209 202 196 192 200 205 221 231
313 313 311 311 311 311 312 312 311 308 306 304 300 282 261 242 231 226 222 223 223 222 223 233 219 218 218 217 216 219 214 216 215 214 210 210 216 210 211 206 200 207 208 212 222 233 218
313 311 311 310 309 310 311 311 311 310 306 307 301 285 263 238 228 223 223 225 227 223 244 234 232 224 215 216 217 215 215 216 218 216 213 217 216 210 212 205 219 207 207 208 222 211 222
314 311 310 310 309 309 310 310 310 310 307 304 290 278 267 234 224 224 227 228 231 232 241 234 229 237 222 216 218 220 220 220 215 215 213 214 214 215 205 208 207 202 211 214 210 211 213
315 313 311 310 309 309 310 310 309 310 308 301 283 268 253 251 231 233 233 230 231 234 239 236 229 232 231 233 220 218 219 216 217 215 212 214 217 212 210 211 210 219 211 210 212 229 224
313 312 311 311 310 310 310 309 308 308 308 298 282 266 255 242 241 242 244 243 233 234 235 229 231 227 241 233 233 220 219 220 218 209 210 209 218 209 210 218 216 218 217 215 216 218 224
312 313 312 311 311 312 312 310 306 304 302 294 280 269 255 244 246 251 250 244 237 231 233 236 236 240 233 232 229 229 222 218 220 214 213 208 214 213 213 219 216 219 220 213 216 221 223
312 313 312 312 312 313 314 313 308 301 298 288 274 262 256 253 249 261 253 247 247 240 230 230 229 230 233 232 234 229 228 218 218 215 213 212 215 214 218 216 213 219 222 223 221 223 223
312 313 312 311 312 313 314 315 312 303 296 283 269 264 262 259 257 259 253 242 246 243 236 234 230 231 230 236 228 234 232 221 218 214 212 216 218 216 225 222 218 222 222 224 227 223 227
312 313 312 310 310 312 314 315 313 306 295 281 270 265 261 256 253 249 240 251 254 247 241 233 235 232 228 232 231 230 232 230 225 214 212 215 214 215 225 226 234 233 223 223 226 228 226
309 311 311 310 309 309 311 313 313 307 294 279 272 266 259 255 251 245 252 260 263 246 242 239 237 232 223 232 230 230 228 234 229 218 215 213 214 218 223 219 230 232 223 223 226 230 228
307 307 308 308 308 307 307 308 309 308 298 281 272 264 256 255 255 253 250 252 257 251 243 234 235 234 235 227 225 223 224 229 225 218 217 215 214 217 216 221 232 229 224 226 226 236 228
304 304 303 303 304 305 305 303 303 301 300 287 274 263 256 256 246 257 250 250 249 244 239 236 231 233 226 221 218 219 219 216 220 218 214 214 215 216 217 219 227 227 235 230 232 239 229
302 303 302 301 300 300 300 300 298 295 295 291 278 266 257 253 249 247 241 242 238 240 236 234 232 230 225 223 218 219 222 220 218 213 213 215 216 216 220 225 235 231 229 227 227 238 230
301 300 300 298 296 294 295 295 292 290 290 288 282 274 260 254 248 250 244 240 238 233 233 234 230 222 226 224 220 221 222 223 225 223 220 217 215 220 221 226 236 229 232 225 237 228 227
298 298 297 296 293 290 289 288 287 283 281 286 281 282 270 253 245 253 249 246 238 237 231 226 225 226 214 223 223 224 225 223 222 224 223 220 220 223 222 225 231 229 232 230 231 228 229